Laramie, WY

2:13 AM MST on February 22, 2018 (GMT -0700)
Laramie Regional

Weather History for KLAR - August, 2015

Change the Weather History Date:

Friday, August 28, 2015

  Actual Average Record
Temperature  
Mean Temperature 60 °F 60 °F  
Max Temperature 75 °F 76 °F 86 °F (1948)
Min Temperature 45 °F 44 °F 34 °F (2004)
Degree Days  
Heating Degree Days 5 5  
Month to date heating degree days 67 85  
Since 1 June heating degree days 265 395  
Since 1 July heating degree days 145 154  
Cooling Degree Days 0 0  
Month to date cooling degree days 30 17  
Year to date cooling degree days 64 64  
Since 1 June cooling degree days 64 64  
Growing Degree Days 10 (Base 50)    
Moisture  
Dew Point 43 °F    
Average Humidity 60    
Maximum Humidity 93    
Minimum Humidity 27    
Precipitation  
Precipitation 0.00 in 0.03 in 0.46 in (2014)
Month to date precipitation 1.12 1.12  
Year to date precipitation 9.68 8.04  
Sea Level Pressure  
Sea Level Pressure 30.09 in    
Wind  
Wind Speed 6 mph (North)    
Max Wind Speed 14 mph    
Max Gust Speed 19 mph    
Visibility 10 miles    
Events Rain    
T = Trace of Precipitation, MM = Missing Value Source: NWS Daily Summary

Daily Weather History Graph

Daily Weather History Graph

Search for Another Location

Airport or City:

Trip Planner

Search our weather history database for the weather conditions in past years. The results will help you decide how hot, cold, wet, or windy it might be!

Date:

Astronomy

Aug. 28, 2015 Rise Set
Actual Time 6:24 AM MDT 7:42 PM MDT
Civil Twilight 5:56 AM MDT 8:10 PM MDT
Nautical Twilight 5:21 AM MDT 8:45 PM MDT
Astronomical Twilight 4:45 AM MDT 9:21 PM MDT
Moon 6:57 PM MDT (8/28) 5:02 AM MDT (8/28)
Length of Visible Light 14h 14m
Length of Day
13h 17m
Waxing Gibbous, 98% of the Moon is Illuminated
Aug 28
Waxing Gibbous
Aug 29
Full
Sep 5
Last Quarter
Sep 13
New
Sep 21
First Quarter

Hourly Weather History & Observations

Time (MDT) Temp. Windchill Dew Point Humidity Pressure Visibility Wind Dir Wind Speed Gust Speed Precip Events Conditions
12:20 AM 55.0 °F - 50.0 °F 83% 30.31 in 10.0 mi North 9.2 mph - N/A   Overcast
12:53 AM 53.1 °F - 48.0 °F 83% 30.06 in 10.0 mi NW 8.1 mph 20.7 mph N/A   Partly Cloudy
1:53 AM 52.0 °F - 46.9 °F 83% 30.05 in 10.0 mi NW 9.2 mph - N/A   Clear
2:53 AM 48.0 °F - 45.0 °F 89% 30.07 in 10.0 mi NW 3.5 mph - N/A   Clear
3:53 AM 46.0 °F 41.4 °F 45.0 °F 96% 30.06 in 10.0 mi SE 9.2 mph - N/A   Mostly Cloudy
4:53 AM 46.0 °F 43.1 °F 44.1 °F 93% 30.06 in 10.0 mi SSE 5.8 mph - N/A   Mostly Cloudy
5:53 AM 46.9 °F - 45.0 °F 93% 30.06 in 10.0 mi SSE 6.9 mph - N/A   Mostly Cloudy
6:53 AM 45.0 °F - 43.0 °F 93% 30.09 in 10.0 mi Calm Calm - N/A   Clear
7:53 AM 51.1 °F - 48.0 °F 89% 30.11 in 10.0 mi Calm Calm - N/A   Clear
8:53 AM 53.1 °F - 48.0 °F 83% 30.12 in 10.0 mi SE 4.6 mph - N/A   Clear
9:53 AM 61.0 °F - 46.9 °F 60% 30.09 in 10.0 mi Variable 3.5 mph - N/A   Clear
10:53 AM 64.9 °F - 46.9 °F 52% 30.12 in 10.0 mi NNE 8.1 mph - N/A   Clear
11:53 AM 68.0 °F - 45.0 °F 43% 30.09 in 10.0 mi NNE 8.1 mph 18.4 mph N/A   Clear
12:53 PM 70.0 °F - 39.9 °F 33% 30.08 in 10.0 mi North 4.6 mph - N/A   Clear
1:53 PM 73.0 °F - 39.9 °F 30% 30.06 in 10.0 mi North 8.1 mph - N/A   Clear
2:53 PM 75.0 °F - 39.9 °F 28% 30.05 in 10.0 mi North 9.2 mph - N/A   Clear
3:53 PM 73.9 °F - 39.0 °F 28% 30.05 in 10.0 mi Variable 5.8 mph - N/A   Clear
4:53 PM 73.9 °F - 39.0 °F 28% 30.05 in 10.0 mi Variable 4.6 mph - N/A   Clear
5:53 PM 72.0 °F - 37.0 °F 28% 30.05 in 10.0 mi NW 4.6 mph - N/A   Clear
6:53 PM 71.1 °F - 37.9 °F 30% 30.07 in 10.0 mi North 3.5 mph - 0.00 in Rain Light Rain
7:53 PM 68.0 °F - 37.9 °F 33% 30.06 in 10.0 mi Calm Calm - 0.00 in   Clear
8:53 PM 62.1 °F - 39.9 °F 44% 30.10 in 10.0 mi Calm Calm - N/A   Clear
9:53 PM 55.0 °F - 41.0 °F 59% 30.12 in 10.0 mi SSE 8.1 mph - N/A   Clear
10:53 PM 52.0 °F - 39.9 °F 63% 30.12 in 10.0 mi SSW 6.9 mph - N/A   Clear
11:53 PM 54.0 °F - 39.9 °F 59% 30.10 in 10.0 mi SSW 9.2 mph - N/A   Clear